Regional Weather Roundup
Issued by NWS Newport/Morehead, NC

Current Version | Previous Version | Graphics & Text | Print | Product List | Glossary Off
Versions: 1 2 3 4 5 6 7 8 9 10 11 12 13 14 15 16 17 18 19 20 21 22 23 24 25 26 27 28 29 30 31 32 33 34 35 36 37 38 39 40 41 42 43 44 45 46 47 48 49 50
538 ASUS42 KMHX 270825 RWRMHX WEATHER ROUNDUP FOR EASTERN NORTH CAROLINA NATIONAL WEATHER SERVICE NEWPORT/MOREHEAD CITY NC 400 AM EDT TUE JUN 27 2017 NOTE: "FAIR" INDICATES FEW OR NO CLOUDS BELOW 12,000 FEET WITH NO SIGNIFICANT WEATHER AND/OR OBSTRUCTIONS TO VISIBILITY NCZ015>017-031-032-045>047-102-103-270900- NORTH COAST CITY SKY/WX TMP DP RH WIND PRES REMARKS EDENTON CLOUDY 74 67 76 CALM 30.01F ELIZABETH CITY PTCLDY 69 66 90 S3 30.00F KITTY HAWK SUNNY 69 64 83 CALM 29.99F MANTEO CLEAR 65 63 93 CALM 30.01S $$ NCZ045>047-081-094-103-104-270900- CENTRAL COAST CITY SKY/WX TMP DP RH WIND PRES REMARKS FRISCO PTCLDY 67 63 87 CALM 30.01S $$ NCZ095-097-098-100-101-270900- SOUTHERN COAST CITY SKY/WX TMP DP RH WIND PRES REMARKS BEAUFORT PTCLDY 68 68 100 E3 30.00F CEDAR ISLAND NOT AVBL JACKSONVILLE CLEAR 65 65 100 CALM 30.01S PINEY ISLAND MOSUNNY N/A N/A N/A S3 30.00F WILMINGTON CLEAR 66 65 96 CALM 30.01F $$ NCZ011>013-027>030-043-044-078>080-089-090>093-098-270900- COASTAL PLAIN CITY SKY/WX TMP DP RH WIND PRES REMARKS AHOSKIE N/A 62 62 99 CALM 30.01S CLINTON CLEAR 66 64 94 CALM 30.02S ELIZABETHTOWN NOT AVBL GOLDSBORO MOCLDY 68 66 94 CALM 30.00S GREENVILLE CLOUDY 68 66 94 CALM 30.03S HAVELOCK CLEAR 66 64 93 CALM 30.02S KENANSVILLE CLEAR 61 61 100 CALM 30.02F KINSTON PTCLDY 65 63 95 CALM 30.02S NEW BERN PTCLDY 66 65 96 CALM 30.02F RICHLANDS CLEAR 61 60 97 CALM 30.02F ROCKY MOUNT CLOUDY 66 65 96 CALM 30.01S WASHINGTON N/A N/A N/A N/A CALM 30.01F WHITEVILLE CLEAR 65 64 96 CALM 30.02S $$ AMZ130-135-150-152-154-156-158-170-250-252-270-ANZ085-086-088-633-658-670-270900- MARINE OBSERVATIONS STATION/POSITION TIME TEMP WIND PRES WAVE SWELL AIR SEA DIR/SP/G HT/PER HT/PER (UTC) (F) (DEG/KT/KT) (MB) (FT/S) (FT/S) CHESAPEAKE LIGHT NOT AVBL 64 E VA BEACH 0750 73 73 160/ 4/ 6 1016.5 2/ 7 2/ 7 DUCK 0800 72 72 160/ 4/ 5 1015.5 2 E DUCK NOT AVBL OREGON INLET 0800 70 73 100/ 3/ 3 1015.9 13E OREGON INLT 0748 74 N/A 2/ 7 2/ 6 HATTERAS CG 0800 73 77 CALM 1015.9 DIAMOND BUOY 0750 77 81 330/ 6/ 6 1015.8 1/ 8 2/ 8 CAPE LOOKOUT 0800 76 20/ 1/ 1 1015.7 BEAUFORT LAB 0800 73 78 110/ 1/ 2 1015.3 30 SE NEW RVR IN 0708 77 81 20/ 4/ 6 1016.3 30 SE NEW RVR IN 0813 80 N/A 2/ 8 27 SE WRIGHTSVLE 0708 77 80 360/ 4/ 6 1015.3 5 SE WRIGHTSVLE 0708 78 79 340/ 2/ 6 1016.1 225 S CAPE HAT 0750 80 80 220/ 10/ 14 1015.9 3/ 6 3/ 6 41 SE CHARLESTON 0810 79 81 30/ 6/ 6 1015.6 $$

USA.gov is the U.S. government's official web portal to all federal, state and local government web resources and services.